TimeEDT,TemperatureF,Dew PointF,Humidity,Sea Level PressureIn,VisibilityMPH,Wind Direction,Wind SpeedMPH,Gust SpeedMPH,PrecipitationIn,Events,Conditions,WindDirDegrees,DateUTC
12:53 AM,48.9,46.0,90,29.58,10.0,East,13.8,23.0,0.01,,Partly Cloudy,80,2011-10-19 04:53:00
1:53 AM,50.0,46.0,86,29.57,10.0,ENE,6.9,-,N/A,,Overcast,70,2011-10-19 05:53:00
2:53 AM,48.9,46.9,93,29.57,9.0,NNE,3.5,-,N/A,,Overcast,20,2011-10-19 06:53:00
3:29 AM,48.2,46.4,93,29.57,6.0,NW,3.5,-,0.00,,Overcast,320,2011-10-19 07:29:00
3:53 AM,48.9,46.9,93,29.56,6.0,North,5.8,-,0.00,,Overcast,10,2011-10-19 07:53:00
4:39 AM,48.2,46.4,93,29.54,6.0,NE,3.5,-,N/A,,Overcast,40,2011-10-19 08:39:00
4:53 AM,48.9,46.9,93,29.55,5.0,ENE,3.5,-,0.00,Rain,Light Rain,70,2011-10-19 08:53:00
5:00 AM,48.2,46.4,93,29.55,4.0,Calm,Calm,-,0.02,Rain,Rain,0,2011-10-19 09:00:00
5:53 AM,48.0,46.9,96,29.54,3.0,NE,3.5,-,0.14,Rain,Rain,40,2011-10-19 09:53:00
6:28 AM,48.2,46.4,93,29.52,3.0,East,6.9,-,0.05,Rain,Light Rain,80,2011-10-19 10:28:00
7:19 AM,48.2,46.4,93,29.49,4.0,ENE,6.9,-,0.02,Rain,Light Rain,70,2011-10-19 11:19:00
7:51 AM,48.2,46.4,93,29.50,5.0,Calm,Calm,-,0.03,Rain,Light Rain,0,2011-10-19 11:51:00
7:53 AM,48.9,46.9,93,29.50,5.0,East,4.6,-,0.03,Rain,Light Rain,80,2011-10-19 11:53:00
8:22 AM,48.2,46.4,93,29.50,4.0,ESE,4.6,-,0.03,Rain,Light Rain,110,2011-10-19 12:22:00
8:48 AM,48.2,48.2,100,29.49,2.0,East,4.6,-,0.08,Rain,Rain,90,2011-10-19 12:48:00
8:49 AM,48.9,48.0,97,29.49,2.0,East,4.6,-,0.08,Rain,Rain,80,2011-10-19 12:49:00
9:11 AM,48.2,48.2,100,29.49,2.5,Variable,3.5,-,0.04,Rain,Light Rain,0,2011-10-19 13:11:00
9:29 AM,50.0,48.2,94,29.48,2.0,East,5.8,-,0.08,Rain,Rain,90,2011-10-19 13:29:00
9:44 AM,50.0,48.2,94,29.47,2.5,ESE,4.6,-,0.11,Rain,Light Rain,110,2011-10-19 13:44:00
9:53 AM,50.0,48.9,96,29.47,3.0,East,3.5,-,0.12,Rain,Light Rain,100,2011-10-19 13:53:00
11:01 AM,51.8,50.0,94,29.45,2.5,Calm,Calm,-,0.01,Rain,Rain,0,2011-10-19 15:01:00
11:35 AM,51.8,51.8,100,29.43,3.0,East,4.6,-,0.07,Rain,Rain,90,2011-10-19 15:35:00
12:20 PM,53.6,51.8,94,29.42,2.0,Calm,Calm,-,0.05,Rain,Rain,0,2011-10-19 16:20:00
12:28 PM,53.6,51.8,94,29.41,2.0,Calm,Calm,-,0.07,Rain,Rain,0,2011-10-19 16:28:00
1:23 PM,55.4,53.6,94,29.35,5.0,ENE,4.6,-,0.01,Rain,Light Rain,60,2011-10-19 17:23:00
1:31 PM,55.4,53.6,94,29.34,5.0,ENE,4.6,-,0.01,Rain,Light Rain,70,2011-10-19 17:31:00
1:43 PM,55.4,53.6,94,29.34,4.0,East,4.6,-,0.02,Rain,Light Rain,80,2011-10-19 17:43:00
1:53 PM,55.9,54.0,93,29.35,5.0,ESE,3.5,-,0.02,Rain,Light Rain,110,2011-10-19 17:53:00
2:36 PM,55.4,55.4,100,29.29,3.0,ENE,6.9,-,0.06,Rain,Light Rain,60,2011-10-19 18:36:00
2:53 PM,55.9,55.0,97,29.29,8.0,East,5.8,-,0.06,,Overcast,80,2011-10-19 18:53:00
3:48 PM,55.4,53.6,94,29.25,2.0,NE,5.8,-,0.05,Rain,Rain,50,2011-10-19 19:48:00
3:53 PM,55.9,54.0,93,29.25,2.5,NE,5.8,-,0.05,Rain,Light Rain,50,2011-10-19 19:53:00
4:01 PM,55.4,53.6,94,29.25,4.0,NE,4.6,-,0.00,Rain,Light Rain,40,2011-10-19 20:01:00
4:07 PM,55.4,53.6,94,29.24,2.0,NE,5.8,-,0.01,Rain,Light Rain,40,2011-10-19 20:07:00
4:15 PM,55.4,53.6,94,29.24,1.2,Calm,Calm,-,0.04,Rain,Rain,0,2011-10-19 20:15:00
4:22 PM,55.4,55.4,100,29.23,1.0,NNE,3.5,-,0.08,Rain,Heavy Rain,30,2011-10-19 20:22:00
4:33 PM,55.4,55.4,100,29.22,1.2,Calm,Calm,-,0.12,Rain,Rain,0,2011-10-19 20:33:00
4:46 PM,55.4,53.6,94,29.23,0.8,West,3.5,-,0.21,Rain,Heavy Rain,270,2011-10-19 20:46:00
4:53 PM,55.0,54.0,96,29.23,0.5,West,4.6,-,0.26,Fog-Rain,Heavy Rain,270,2011-10-19 20:53:00
5:19 PM,55.4,53.6,94,29.25,0.8,WSW,12.7,-,0.21,Rain,Heavy Rain,240,2011-10-19 21:19:00
5:21 PM,55.4,53.6,94,29.25,1.0,WSW,12.7,-,0.22,Rain,Heavy Rain,240,2011-10-19 21:21:00
5:24 PM,55.4,53.6,94,29.26,1.2,WSW,15.0,-,0.23,Rain,Heavy Rain,250,2011-10-19 21:24:00
5:39 PM,53.6,51.8,94,29.24,2.0,West,16.1,25.3,0.30,Rain,Rain,270,2011-10-19 21:39:00
5:46 PM,53.6,51.8,94,29.25,2.0,West,16.1,21.9,0.34,Rain,Heavy Rain,260,2011-10-19 21:46:00
5:51 PM,53.6,51.8,94,29.25,2.5,West,17.3,24.2,0.35,Rain,Rain,260,2011-10-19 21:51:00
5:53 PM,53.1,52.0,96,29.25,3.0,West,16.1,24.2,0.35,Rain,Rain,260,2011-10-19 21:53:00
6:26 PM,53.6,51.8,94,29.26,2.5,West,16.1,27.6,0.13,Rain,Heavy Rain,280,2011-10-19 22:26:00
6:33 PM,53.6,51.8,94,29.28,3.0,West,10.4,25.3,0.17,Rain,Heavy Rain,260,2011-10-19 22:33:00
6:53 PM,53.1,51.1,93,29.30,7.0,WSW,15.0,23.0,0.19,Rain,Light Rain,240,2011-10-19 22:53:00
7:00 PM,53.6,51.8,94,29.29,4.0,West,15.0,24.2,0.02,Rain,Rain,260,2011-10-19 23:00:00
7:53 PM,52.0,48.9,89,29.28,10.0,WNW,9.2,20.7,0.06,Rain,Light Rain,290,2011-10-19 23:53:00
8:53 PM,51.1,48.9,92,29.27,10.0,SW,10.4,18.4,0.01,,Mostly Cloudy,220,2011-10-20 00:53:00
9:00 PM,51.8,48.2,88,29.28,10.0,SW,11.5,19.6,N/A,,Mostly Cloudy,220,2011-10-20 01:00:00
9:07 PM,50.0,46.4,87,29.29,10.0,SW,19.6,29.9,N/A,,Overcast,220,2011-10-20 01:07:00
9:53 PM,48.0,46.0,93,29.31,3.0,SSW,10.4,20.7,0.00,Rain,Light Rain,200,2011-10-20 01:53:00
10:41 PM,48.2,46.4,93,29.30,8.0,SSW,11.5,19.6,0.00,,Overcast,200,2011-10-20 02:41:00
10:51 PM,48.2,44.6,87,29.30,9.0,SSW,12.7,19.6,0.00,,Overcast,200,2011-10-20 02:51:00
10:53 PM,48.0,45.0,89,29.29,9.0,SSW,11.5,19.6,0.00,,Overcast,200,2011-10-20 02:53:00
11:53 PM,48.0,45.0,89,29.27,10.0,SSW,13.8,21.9,N/A,,Overcast,200,2011-10-20 03:53:00